This is the latest recevied weather packets stored in our database for station/object N0NPO. If no packets are shown the sender has not sent any weather packets the latest 10 day(s).
| Time | Temp. | Humidity | Pressure | Rain* | Wind** | Luminosity | Snow |
|---|---|---|---|---|---|---|---|
| 1778240807 | 5° C | 1% | 1012.1 hPa | 0 mm | - | 16 W/m² | - |
| 1778240504 | 5° C | 1% | 1011.8 hPa | 0 mm | - | 10 W/m² | - |
| 1778240201 | 5° C | 1% | 1012 hPa | 0 mm | - | 7 W/m² | - |
| 1778239899 | 5° C | 1% | 1012 hPa | 0 mm | - | 4 W/m² | - |
| 1778239589 | 5.56° C | 1% | 1011.9 hPa | 0 mm | - | 2 W/m² | - |
| 1778239286 | 5.56° C | 1% | 1012 hPa | 0 mm | - | 0 W/m² | - |
| 1778238983 | 6.11° C | 1% | 1012 hPa | 0 mm | - | 0 W/m² | - |
| 1778238680 | 6.67° C | 1% | 1011.9 hPa | 0 mm | - | 0 W/m² | - |
| 1778238378 | 6.11° C | 1% | 1011.9 hPa | 0 mm | - | 0 W/m² | - |
| 1778238074 | 6.11° C | 1% | 1011.9 hPa | 0 mm | - | 0 W/m² | - |
| 1778237768 | 6.67° C | 1% | 1012 hPa | 0 mm | - | 0 W/m² | - |
| 1778237466 | 7.22° C | 1% | 1011.9 hPa | 0 mm | - | 0 W/m² | - |
| 1778237163 | 7.78° C | 1% | 1012 hPa | 0 mm | - | 0 W/m² | - |
| 1778236860 | 7.78° C | 1% | 1012 hPa | 0 mm | - | 0 W/m² | - |
| 1778236557 | 7.78° C | 1% | 1011.9 hPa | 0 mm | - | 0 W/m² | - |
| 1778236254 | 6.67° C | 1% | 1011.8 hPa | 0 mm | - | 0 W/m² | - |
| 1778235952 | 7.22° C | 1% | 1011.7 hPa | 0 mm | - | 0 W/m² | - |
| 1778235649 | 7.78° C | 1% | 1011.5 hPa | 0 mm | - | 0 W/m² | - |
| 1778235347 | 7.78° C | 1% | 1011.7 hPa | 0 mm | - | 0 W/m² | - |
| 1778235043 | 7.78° C | 1% | 1011.8 hPa | 0 mm | - | 0 W/m² | - |
| 1778234742 | 7.78° C | 1% | 1011.8 hPa | 0 mm | - | 0 W/m² | - |
| 1778234438 | 7.78° C | 1% | 1011.9 hPa | 0 mm | - | 0 W/m² | - |
| 1778234135 | 7.78° C | 1% | 1012.2 hPa | 0 mm | - | 0 W/m² | - |
| 1778233832 | 8.33° C | 1% | 1012.1 hPa | 0 mm | - | 0 W/m² | - |
| 1778233529 | 8.33° C | 1% | 1012.1 hPa | 0 mm | - | 0 W/m² | - |
* Rain latest hour (hover to see other rain measurements)
** Current wind speed in m/s (hover to see current wind gust speed)